TimeAKDT,TemperatureF,Dew PointF,Humidity,Sea Level PressureIn,VisibilityMPH,Wind Direction,Wind SpeedMPH,Gust SpeedMPH,PrecipitationIn,Events,Conditions,WindDirDegrees,DateUTC
12:53 AM,21.9,18.0,85,30.31,10.0,WNW,11.5,-,N/A,,Clear,300,2012-10-19 08:53:00
1:53 AM,21.9,19.0,89,30.32,10.0,NW,10.4,-,N/A,,Clear,310,2012-10-19 09:53:00
2:53 AM,21.9,19.9,92,30.32,10.0,NW,12.7,-,N/A,,Partly Cloudy,310,2012-10-19 10:53:00
3:53 AM,21.0,19.0,92,30.34,10.0,NW,9.2,-,N/A,,Partly Cloudy,310,2012-10-19 11:53:00
4:53 AM,21.0,19.0,92,30.35,10.0,NW,11.5,-,N/A,,Partly Cloudy,310,2012-10-19 12:53:00
5:53 AM,19.9,19.0,96,30.36,10.0,NW,9.2,-,N/A,,Clear,310,2012-10-19 13:53:00
6:53 AM,19.9,18.0,92,30.37,10.0,WNW,11.5,-,N/A,,Scattered Clouds,300,2012-10-19 14:53:00
7:53 AM,19.9,18.0,92,30.38,10.0,NW,6.9,-,N/A,,Scattered Clouds,310,2012-10-19 15:53:00
8:53 AM,19.0,17.1,92,30.40,10.0,NW,9.2,-,N/A,,Partly Cloudy,310,2012-10-19 16:53:00
9:53 AM,19.0,17.1,92,30.40,10.0,WNW,9.2,-,N/A,,Partly Cloudy,300,2012-10-19 17:53:00
10:53 AM,21.0,18.0,88,30.42,10.0,WNW,10.4,-,N/A,,Scattered Clouds,300,2012-10-19 18:53:00
11:53 AM,24.1,21.0,88,30.43,10.0,NW,12.7,-,N/A,,Scattered Clouds,320,2012-10-19 19:53:00
12:53 PM,27.0,21.9,81,30.44,10.0,NNW,10.4,-,N/A,,Mostly Cloudy,340,2012-10-19 20:53:00
1:53 PM,28.9,21.9,75,30.44,10.0,NNW,10.4,-,N/A,,Mostly Cloudy,330,2012-10-19 21:53:00
2:53 PM,30.9,21.0,67,30.45,10.0,NNW,13.8,-,N/A,,Scattered Clouds,330,2012-10-19 22:53:00
3:53 PM,30.9,21.9,69,30.46,10.0,NW,11.5,-,N/A,,Overcast,320,2012-10-19 23:53:00
4:53 PM,30.9,23.0,72,30.46,10.0,NNW,10.4,-,N/A,,Overcast,330,2012-10-20 00:53:00
5:53 PM,30.9,25.0,79,30.46,10.0,WNW,8.1,-,N/A,,Overcast,300,2012-10-20 01:53:00
6:53 PM,30.9,26.1,82,30.47,10.0,WNW,6.9,-,N/A,,Overcast,290,2012-10-20 02:53:00
7:53 PM,30.0,26.1,85,30.48,10.0,WNW,4.6,-,N/A,,Overcast,300,2012-10-20 03:53:00
8:18 PM,30.2,26.6,86,30.47,10.0,WNW,4.6,-,N/A,,Overcast,300,2012-10-20 04:18:00
8:39 PM,30.2,26.6,86,30.47,10.0,WNW,4.6,-,N/A,,Overcast,290,2012-10-20 04:39:00
8:53 PM,30.0,27.0,88,30.48,10.0,WNW,4.6,-,N/A,,Overcast,290,2012-10-20 04:53:00
9:53 PM,30.0,26.1,85,30.49,10.0,WNW,8.1,-,N/A,,Mostly Cloudy,290,2012-10-20 05:53:00
10:53 PM,28.0,26.1,92,30.49,10.0,West,5.8,-,N/A,,Mostly Cloudy,270,2012-10-20 06:53:00
11:53 PM,28.0,26.1,92,30.50,10.0,West,6.9,-,N/A,,Overcast,260,2012-10-20 07:53:00